West Point, VA

12:41 PM EDT on September 29, 2016 (GMT -0400)
West Point

Weather History for KFYJ - January, 2013

Change the Weather History Date:

Saturday, January 12, 2013

  Actual Average (KRIC) Record (KRIC)
Temperature  
Mean Temperature 50 °F 38 °F  
Max Temperature 53 °F 47 °F 71 °F (2005)
Min Temperature 48 °F 28 °F -1 °F (1942)
Degree Days  
Heating Degree Days 14 27  
Month to date heating degree days 324  
Since 1 July heating degree days 1743  
Cooling Degree Days 0 0  
Month to date cooling degree days 0  
Year to date cooling degree days 0  
Moisture  
Dew Point 51 °F    
Average Humidity 100    
Maximum Humidity 100    
Minimum Humidity 100    
Precipitation  
Precipitation 0.00 in 0.10 in 1.76 in (1915)
Month to date precipitation 1.17  
Year to date precipitation 1.17  
Snow  
Snow 0.00 in 0.10 in 3.80 in (1964)
Month to date snowfall 1.2  
Since 1 July snowfall 3.5  
Snow Depth -    
Sea Level Pressure  
Sea Level Pressure 30.16 in    
Wind  
Wind Speed 2 mph (WSW)    
Max Wind Speed 8 mph    
Max Gust Speed -    
Visibility 1 miles    
Events      
T = Trace of Precipitation, MM = Missing Value Source: NWS Daily Summary

Daily Weather History Graph

Daily Weather History Graph

Search for Another Location

Airport or City:

Trip Planner

Search our weather history database for the weather conditions in past years. The results will help you decide how hot, cold, wet, or windy it might be!

Date:

Astronomy

Jan. 12, 2013 Rise Set
Actual Time 7:21 AM EST 5:09 PM EST
Civil Twilight 6:52 AM EST 5:38 PM EST
Nautical Twilight 6:20 AM EST 6:10 PM EST
Astronomical Twilight 5:48 AM EST 6:42 PM EST
Moon 7:40 AM EST (1/12) 6:33 PM EST (1/12)
Length of Visible Light 10h 45m
Length of Day
9h 48m
New Moon, 1% of the Moon is Illuminated
Jan 12
New Moon
Jan 18
First Quarter
Jan 26
Full
Feb 3
Last Quarter
Feb 10
New

Hourly Weather History & Observations

Time (EST) Temp. Dew Point Humidity Pressure Visibility Wind Dir Wind Speed Gust Speed Precip Events Conditions
12:15 AM 51.3 °F 51.3 °F 100% 30.13 in 5.0 mi SW 6.9 mph - N/A   Overcast
12:35 AM 51.3 °F 51.3 °F 100% 30.13 in 3.0 mi WSW 8.1 mph - N/A   Overcast
12:55 AM 51.1 °F 51.1 °F 100% 30.13 in 3.0 mi WSW 5.8 mph - N/A   Overcast
1:15 AM 50.9 °F 50.9 °F 100% 30.13 in 2.5 mi West 5.8 mph - N/A   Overcast
1:35 AM 51.1 °F 51.1 °F 100% 30.13 in 2.5 mi West 5.8 mph - N/A   Overcast
1:55 AM 51.1 °F 51.1 °F 100% 30.14 in 3.0 mi West 3.5 mph - N/A   Overcast
2:15 AM 50.9 °F 50.9 °F 100% 30.15 in 2.5 mi Calm Calm - N/A   Overcast
2:35 AM 50.9 °F 50.9 °F 100% 30.14 in 2.5 mi Calm Calm - N/A   Overcast
3:15 AM 51.1 °F 51.1 °F 100% 30.13 in 2.5 mi WSW 4.6 mph - N/A   Overcast
3:35 AM 51.4 °F 51.4 °F 100% 30.13 in 1.8 mi Calm Calm - N/A   Overcast
3:55 AM 51.3 °F 51.3 °F 100% 30.13 in 1.2 mi Calm Calm - N/A   Overcast
4:15 AM 51.4 °F 51.4 °F 100% 30.13 in 2.5 mi Calm Calm - N/A   Overcast
4:35 AM 51.3 °F 51.3 °F 100% 30.13 in 1.0 mi Calm Calm - N/A   Overcast
4:55 AM 51.1 °F 51.1 °F 100% 30.13 in 0.5 mi Calm Calm - N/A   Overcast
5:15 AM 50.9 °F 50.9 °F 100% 30.12 in 0.2 mi Calm Calm - N/A   Overcast
5:35 AM 51.1 °F 51.1 °F 100% 30.12 in 0.5 mi Calm Calm - N/A   Overcast
5:55 AM 50.9 °F 50.9 °F 100% 30.13 in 0.5 mi Calm Calm - N/A   Overcast
6:15 AM 50.9 °F 50.9 °F 100% 30.14 in 0.5 mi Calm Calm - N/A   Overcast
6:35 AM 50.9 °F 50.9 °F 100% 30.14 in 0.5 mi Calm Calm - N/A   Overcast
6:55 AM 50.9 °F 50.9 °F 100% 30.15 in 0.5 mi Calm Calm - N/A   Overcast
7:15 AM 50.5 °F 50.5 °F 100% 30.15 in 0.5 mi Calm Calm - N/A   Overcast
7:35 AM 50.7 °F 50.7 °F 100% 30.16 in 0.5 mi Calm Calm - N/A   Overcast
7:55 AM 50.9 °F 50.9 °F 100% 30.16 in 0.2 mi Calm Calm - N/A   Overcast
8:15 AM 50.9 °F 50.9 °F 100% 30.17 in 0.2 mi Calm Calm - N/A   Overcast
8:35 AM 50.9 °F 50.9 °F 100% 30.18 in 0.2 mi Calm Calm - N/A   Overcast
8:55 AM 51.1 °F 51.1 °F 100% 30.18 in 1.2 mi North 3.5 mph - N/A   Overcast
9:15 AM 50.9 °F 50.9 °F 100% 30.18 in 0.8 mi Calm Calm - N/A   Overcast
9:35 AM 51.4 °F 51.4 °F 100% 30.18 in 1.2 mi West 3.5 mph - N/A   Overcast
9:55 AM 50.9 °F 50.9 °F 100% 30.19 in 0.5 mi Calm Calm - N/A   Overcast
10:15 AM 51.1 °F 51.1 °F 100% 30.19 in 0.5 mi Calm Calm - N/A   Overcast
10:35 AM 51.4 °F 51.4 °F 100% 30.19 in 0.2 mi Calm Calm - N/A   Overcast
10:55 AM 51.6 °F 51.6 °F 100% 30.19 in 0.5 mi Calm Calm - N/A   Overcast
11:15 AM 51.4 °F 51.4 °F 100% 30.19 in 0.2 mi WSW 4.6 mph - N/A   Overcast
11:35 AM 51.1 °F 51.1 °F 100% 30.18 in 0.2 mi Calm Calm - N/A   Overcast
11:55 AM 51.4 °F 51.4 °F 100% 30.16 in 0.5 mi NE 4.6 mph - N/A   Overcast
12:15 PM 52.2 °F 52.2 °F 100% 30.16 in 1.2 mi NNW 3.5 mph - N/A   Overcast
12:35 PM 52.0 °F 52.0 °F 100% 30.15 in 1.0 mi Calm Calm - N/A   Overcast
12:55 PM 52.0 °F 52.0 °F 100% 30.16 in 0.8 mi NNW 3.5 mph - N/A   Overcast
1:15 PM 51.8 °F 51.8 °F 100% 30.16 in 0.8 mi Calm Calm - N/A   Overcast
1:35 PM 51.8 °F 51.8 °F 100% 30.16 in 0.8 mi NNW 3.5 mph - N/A   Overcast
1:55 PM 51.8 °F 51.8 °F 100% 30.16 in 1.0 mi NNW 3.5 mph - N/A   Overcast
2:15 PM 52.2 °F 52.2 °F 100% 30.15 in 1.0 mi Calm Calm - N/A   Overcast
2:35 PM 52.7 °F 52.7 °F 100% 30.15 in 1.8 mi Calm Calm - N/A   Overcast
2:55 PM 52.9 °F 52.9 °F 100% 30.15 in 1.8 mi Calm Calm - N/A   Overcast
3:15 PM 53.1 °F 53.1 °F 100% 30.15 in 1.8 mi Calm Calm - N/A   Overcast
3:35 PM 53.2 °F 53.2 °F 100% 30.15 in 1.5 mi Calm Calm - N/A   Overcast
3:55 PM 52.9 °F 52.9 °F 100% 30.15 in 1.0 mi Calm Calm - N/A   Overcast
4:15 PM 53.1 °F 53.1 °F 100% 30.17 in 1.5 mi West 3.5 mph - N/A   Overcast
4:35 PM 52.9 °F 52.9 °F 100% 30.16 in 0.5 mi Calm Calm - N/A   Overcast
4:55 PM 52.9 °F 52.9 °F 100% 30.17 in 1.0 mi Calm Calm - N/A   Overcast
5:15 PM 52.9 °F 52.9 °F 100% 30.17 in 0.8 mi Calm Calm - N/A   Overcast
5:35 PM 53.1 °F 53.1 °F 100% 30.16 in 0.8 mi Calm Calm - N/A   Overcast
5:55 PM 53.1 °F 53.1 °F 100% 30.16 in 1.0 mi Calm Calm - N/A   Overcast
6:15 PM 50.0 °F 50.0 °F 100% 30.15 in 0.5 mi SE 4.6 mph - N/A   Overcast
6:35 PM 49.6 °F 49.6 °F 100% 30.17 in 0.5 mi South 4.6 mph - N/A   Overcast
6:55 PM 48.7 °F 48.7 °F 100% 30.17 in 0.5 mi SSE 3.5 mph - N/A   Overcast
7:15 PM 49.3 °F 49.3 °F 100% 30.16 in 0.5 mi Calm Calm - N/A   Overcast
7:35 PM 49.5 °F 49.5 °F 100% 30.17 in 0.5 mi Calm Calm - N/A   Overcast
8:15 PM 49.8 °F 49.8 °F 100% 30.17 in 0.5 mi Calm Calm - N/A   Overcast
8:35 PM 50.0 °F 50.0 °F 100% 30.16 in 0.5 mi Calm Calm - N/A   Overcast
8:55 PM 50.2 °F 50.2 °F 100% 30.16 in 0.5 mi Calm Calm - N/A   Overcast
9:15 PM 49.3 °F 49.3 °F 100% 30.16 in 0.5 mi Calm Calm - N/A   Overcast
9:35 PM 49.3 °F 49.3 °F 100% 30.16 in 0.5 mi Calm Calm - N/A   Overcast
9:55 PM 49.1 °F 49.1 °F 100% 30.16 in 0.5 mi SSE 3.5 mph - N/A   Overcast
10:15 PM 49.3 °F 49.3 °F 100% 30.17 in 0.5 mi Calm Calm - N/A   Overcast
10:35 PM 49.6 °F 49.6 °F 100% 30.16 in 0.5 mi Calm Calm - N/A   Overcast
10:55 PM 50.0 °F 50.0 °F 100% 30.16 in 0.5 mi Calm Calm - N/A   Overcast
11:15 PM 50.2 °F 50.2 °F 100% 30.16 in 0.5 mi Calm Calm - N/A   Overcast
11:35 PM 50.0 °F 50.0 °F 100% 30.16 in 0.5 mi Calm Calm - N/A   Overcast
11:55 PM 49.3 °F 49.3 °F 100% 30.16 in 0.8 mi South 3.5 mph - N/A   Overcast